OpenBCM V1.13 (Linux)

Packet Radio Mailbox

DB0FHN

[JN59NK Nuernberg]

 Login: GUEST





  
LU9DCE > KEP      02.01.20 18:08l 245 Lines 12046 Bytes #999 (0) @ WW
BID : 6378_LU9DCE
Read: DJ6UX DF7EAV GUEST
Subj: TLE 02 01
Path: DB0FHN<OE2XZR<OE5XBR<OE1XAB<HG8LXL<XE1FH<N3HYM<N7HPX<LU9DCE
Sent: 200102/1600Z 6378@LU9DCE.TOR.BA.ARG.SOAM LinBPQ6.0.19

            __    _  _  ___  ____   ___  ____    ____  ____  ____
           (  )  / )( \/ _ \(    \ / __)(  __)  (  _ \(  _ \/ ___)
           / (_/\) \/ (\__  )) D (( (__  ) _)    ) _ ( ) _ (\___ \
           \____/\____/(___/(____/ \___)(____)  (____/(____/(____/
               ESTACION DE PACKET RADIO - BUENOS AIRES (GF05OM)
                   BOLETINES INFORMATIVOS PROGRAMADOS (BIP)
                      LINUX - HELLOCODELINUX@GMAIL.COM
+----------------------------------------------------------------------------+
OSCAR 7
1  7530U 74089B   20002.20378508 -.00000024  00000-0  13038-3 0  9995
2  7530 101.7758 333.0488 0012168 327.5944  43.2434 12.53641443 65270
OSCAR 11 (UoSAT 2)
1 14781U 84021B   20001.77253118 +.00000057 +00000-0 +13084-4 0  9995
2 14781 097.5983 022.0193 0009363 040.4709 319.7200 14.83131729906978
OSCAR 19 (LUSAT)
1 20442U 90005G   20001.85992317 +.00000008 +00000-0 +19266-4 0  9999
2 20442 098.6726 308.7327 0010742 290.8722 069.1311 14.32941702564555
EYESAT A
1 22825U 93061C   20001.73504177 -.00000007  00000-0  15348-4 0  9998
2 22825  98.9177   0.0147 0009036 139.9671 220.2178 14.30074706370114
ITAMSAT
1 22826U 93061D   20001.90060333 -.00000014 +00000-0 +12555-4 0  9994
2 22826 098.9117 000.1512 0009713 129.1765 231.0280 14.30409252370092
RADIO ROSTO
1 23439U 94085A   20001.85221473 -.00000038 +00000-0 +13910-3 0  9991
2 23439 064.8137 157.2882 0146035 074.6017 287.0987 11.27569342030126
JAS 2
1 24278U 96046B   20001.90774789 -.00000004 +00000-0 +29346-4 0  9995
2 24278 098.5644 133.8541 0351324 088.8395 275.2965 13.53095051154227
TECHSAT 1B
1 25397U 98043D   20001.89738288 -.00000007 +00000-0 +16324-4 0  9994
2 25397 098.7112 304.8339 0001558 141.5478 218.5812 14.23676956115716
ISS (ZARYA)
1 25544U 98067A   20002.35719250 -.00001204  00000-0 -13346-4 0  9996
2 25544  51.6446  93.9746 0005118  93.5145  17.9545 15.49525885206155
PCSAT
1 26931U 01043C   20001.86748566 -.00000044  00000-0  14945-4 0  9998
2 26931  67.0496 214.8650 0006852 263.4170  96.6151 14.30563250953177
SAUDISAT 1C
1 27607U 02058C   20001.83619390 -.00000034  00000-0  16043-4 0  9995
2 27607  64.5536 166.8450 0067907 217.3933 142.2435 14.75598851916123
CUTE-1
1 27844U 03031E   20001.92423563 +.00000028 +00000-0 +32239-4 0  9992
2 27844 098.6835 012.1799 0009923 174.6084 185.5202 14.22213720856284
CUBESAT XI 4
1 27848U 03031J   20001.83203933 +.00000013 +00000-0 +25903-4 0  9997
2 27848 098.6908 012.6262 0009586 186.6442 173.4609 14.21803924856125
MOZHAYETS 4
1 27939U 03042A   20002.32945472  .00000133  00000-0  32353-4 0  9996
2 27939  98.0664 139.6360 0013506 157.2856 202.8971 14.66828314869513
CUBESAT XI 5
1 28895U 05043F   20001.86718272 +.00000108 +00000-0 +29524-4 0  9993
2 28895 097.9845 143.1842 0018102 090.0040 270.3237 14.63725749756093
CUTE-1.7+APD II
1 32785U 08021C   20002.14028545  .00000160  00000-0  22872-4 0  9991
2 32785  97.5604 357.6570 0012363 334.3174  25.7428 14.88397124633053
DELFI C3
1 32789U 08021G   20002.40186219  .00001180  00000-0  81938-4 0  9998
2 32789  97.4412  50.8722 0012746 162.3364 197.8309 15.07361091636743
SEEDS
1 32791U 08021J   20002.09291515  .00000265  00000-0  32187-4 0  9997
2 32791  97.5330   3.7316 0012071 304.1867  55.8207 14.90943552633529
YUBELEINY
1 32953U 08025A   20002.31291917  .00000037  00000-0  19437-3 0  9991
2 32953  82.5042  21.8597 0020239  60.6302 299.6791 12.43093416526863
PRISM (HITOMI)
1 33493U 09002B   20001.87770717 +.00000553 +00000-0 +53772-4 0  9991
2 33493 098.1313 295.3863 0013909 248.7209 111.2527 14.96855172594633
KKS-1 (KISEKI)
1 33499U 09002H   20001.88326449 +.00000051 +00000-0 +15607-4 0  9995
2 33499 098.3324 211.7316 0008092 303.5467 056.4968 14.75492537587877
SWISSCUBE
1 35932U 09051B   20002.12871395  .00000101  00000-0  33767-4 0  9999
2 35932  98.5999 179.1011 0006558 281.5817  78.4643 14.56344877545510
BEESAT
1 35933U 09051C   20001.77658628  .00000061  00000-0  24861-4 0  9992
2 35933  98.6011 180.5699 0004834 299.5884  60.4831 14.56426362545579
ITUPSAT 1
1 35935U 09051E   20001.74216122  .00000044  00000-0  21382-4 0  9996
2 35935  98.6120 180.7549 0007130 296.0109  64.0353 14.55578562545301
XIWANG-1 (HOPE-1)
1 36122U 09072B   20001.73963588 -.00000042 +00000-0 -24958-6 0  9996
2 36122 100.0809 359.9122 0006920 251.3838 108.6525 13.16352549482800
TISAT 1
1 36799U 10035E   20001.69565402  .00000086  00000-0  14829-4 0  9995
2 36799  98.1757 165.7040 0012840 154.9615 205.2227 14.91237825514127
JUGNU
1 37839U 11058B   20001.88867337 +.00000285 +00000-0 +10248-4 0  9992
2 37839 019.9596 218.9393 0018861 341.0558 132.7813 14.12667965425065
SRMSAT
1 37841U 11058D   20001.92815948 +.00000301 +00000-0 +20230-4 0  9992
2 37841 019.9721 279.5601 0011902 202.7402 220.3701 14.10646984424484
M-CUBED/EXP-1 PRIME
1 37855U 11061F   20001.89976189 +.00000486 +00000-0 +32310-4 0  9998
2 37855 101.7266 003.8939 0172085 212.0465 147.0193 15.05910814445987
HORYU 2
1 38340U 12025D   20001.88122405 +.00000114 +00000-0 +24593-4 0  9994
2 38340 098.3056 051.1345 0010936 210.2088 149.8491 14.75793639399832
STRAND 1
1 39090U 13009E   20001.81977666  .00000008  00000-0  17778-4 0  9999
2 39090  98.4679 209.2883 0010189  65.9210 294.3041 14.35112122358663
SOMP
1 39134U 13015E   20002.08995521  .00000875  00000-0  48474-4 0  9994
2 39134  64.8633 100.6973 0038182 271.3172  88.3582 15.20620383370603
BEESAT 3
1 39135U 13015F   20001.77460420 +.00000761 +00000-0 +46629-4 0  9999
2 39135 064.8661 122.8206 0044162 273.1979 086.4095 15.17824047369762
BEESAT 2
1 39136U 13015G   20001.95283974  .00000779  00000-0  48580-4 0  9994
2 39136  64.8710 126.6648 0030993 280.6000  79.1635 15.17248832370094
CUBEBUG 1
1 39153U 13018D   20002.23539887  .00000152  00000-0  26727-4 0  9999
2 39153  97.9814 104.3025 0015570 278.7234  81.2215 14.80646653361043
ZACUBE
1 39417U 13066B   20001.96998755  .00000166  00000-0  27083-4 0  9998
2 39417  97.5612   9.3666 0060339 106.7442 254.0404 14.81200155330249
TRITON 1
1 39427U 13066M   20001.86579812 +.00000092 +00000-0 +22908-4 0  9996
2 39427 097.7027 332.3444 0112307 254.1473 104.7330 14.67925240327079
GOMX 1
1 39430U 13066Q   20002.30334808  .00000205  00000-0  46251-4 0  9997
2 39430  97.7732 311.1058 0151220 351.7928   8.0806 14.59333036325426
HUMSAT D
1 39433U 13066T   20002.08827675  .00000159  00000-0  20713-4 0  9997
2 39433  97.5297  46.2633 0030674   4.7611 355.3895 14.92340509332515
CUBEBUG 2
1 39440U 13066AA  20001.90501260 +.00000145 +00000-0 +27039-4 0  9997
2 39440 097.6156 353.8363 0080522 163.3504 197.0379 14.75937334327864
FUNCUBE 1
1 39444U 13066AE  20001.92811885 +.00000213 +00000-0 +32337-4 0  9993
2 39444 097.5574 011.4478 0059479 100.0553 260.7379 14.82036723328559
UWE-3
1 39446U 13066AG  20001.97753819  .00000148  00000-0  26172-4 0  9999
2 39446  97.5879   1.0827 0070995 135.4204 225.2749 14.78471981328419
SPROUT
1 39770U 14029E   20002.27341099  .00000575  00000-0  69408-4 0  9999
2 39770  97.8907 109.3992 0009322 151.3340 208.8397 14.87560279304209
UNISAT 6
1 40012U 14033C   20001.87683369 +.00000102 +00000-0 +22479-4 0  9992
2 40012 097.7297 224.6949 0058207 180.1558 179.9642 14.74050764297730
DUCHIFAT 1
1 40021U 14033M   20001.88896594 +.00000390 +00000-0 +45483-4 0  9998
2 40021 097.9338 292.2097 0014036 116.7703 243.4952 14.90775761300928
QB50P1
1 40025U 14033R   20001.86761427 +.00000227 +00000-0 +30102-4 0  9997
2 40025 097.9112 286.2517 0013455 126.6978 233.5477 14.89046419300156
CHUBUSAT 1
1 40300U 14070C   20002.25760081  .00000472  00000-0  23351-4 0  9993
2 40300  97.3084  76.2522 0021402  81.6605 320.1883 15.22307935286074
NUDT-PHONESAT
1 40900U 15049B   20002.33428072  .00001593  00000-0  69735-4 0  9997
2 40900  97.4341  14.7802 0011671 205.1533 273.1278 15.23456378237747
ZDPS 2A
1 40901U 15049C   20002.32556328  .00000601  00000-0  32880-4 0  9993
2 40901  97.4610  10.3364 0012054 232.0863 255.6568 15.18004641237218
ZDPS 2B
1 40902U 15049D   20002.29013116  .00000724  00000-0  39004-4 0  9994
2 40902  97.4577   7.6474 0012013 229.5382 186.3882 15.17919232237189
XW-2A
1 40903U 15049E   20002.29029498  .00001235  00000-0  30440-4 0  9998
2 40903  97.3126  50.9454 0014081 143.2457 275.3939 15.42476460240703
KAITUO 1A
1 40904U 15049F   20002.29864846  .00000224  00000-0  15291-4 0  9997
2 40904  97.4720   6.0012 0013072 241.1539 245.1673 15.15552829236928
OBJECT G
1 40905U 15049G   20002.25668515  .00000441  00000-0  27559-4 0  9990
2 40905  97.4783   3.3133 0014142 236.5081 246.4517 15.14429394236774
XW-2C
1 40906U 15049H   20002.31163406  .00000513  00000-0  30247-4 0  9995
2 40906  97.4725   6.1948 0013386 230.4768 187.6487 15.15879954236932
XW-2D
1 40907U 15049J   20002.27548008  .00000655  00000-0  37413-4 0  9995
2 40907  97.4712   5.8461 0012729 227.1410 255.1047 15.16088547236947
LILACSAT 2
1 40908U 15049K   20002.28803451 -.00000047  00000-0  10109-5 0  9993
2 40908  97.4849   4.4415 0014417 237.9729 180.1575 15.13922789236700
XW-2F
1 40910U 15049M   20002.29686727  .00000602  00000-0  33233-4 0  9990
2 40910  97.4654   8.1783 0013520 218.2883 198.6776 15.17623962236985
XW-2B
1 40911U 15049N   20002.30538376  .00000425  00000-0  25579-4 0  9996
2 40911  97.4725   6.5564 0012736 228.4440 188.4137 15.16015551236845
KAITUO 1B
1 40912U 15049P   20002.28867078  .00000787  00000-0  39684-4 0  9991
2 40912  97.4497  12.1182 0014248 196.7936 220.5019 15.19977431237326
TIANWANG 1C (TW-1C)
1 40926U 15051B   20002.25266176  .00011073  00000-0  13772-3 0  9997
2 40926  97.1093  53.4126 0007077  11.2863  54.3704 15.60100101240919
